Location: Makanda
(37.6176°N, 89.2090°W)
Time: 22:02:54
(UTC+00:00)

Cosmos 2292 Rocket - Pass Details

Date: 23 September 2019
Orbit: 380 x 1457 km, 83.0° (Epoch: 20 October)

Event Time Altitude Azimuth Distance (km) Brightness Sun altitude
Rises 10:19:48 0° 177° (S) 3,458 7.3 -17.6°
Reaches altitude 10° 10:22:34 10° 174° (S) 2,341 6.4 -17.1°
Maximum altitude 10:27:36 61° 96° (E) 720 4.1 -16.1°
Drops below altitude 10° 10:31:26 10° 15° (NNE) 1,786 6.3 -15.3°
Sets 10:33:19 0° 12° (NNE) 2,569 7.1 -15.0°
